Location: Napier
(39.4830°S, 176.9170°E)
Time: 12:23:23
(UTC+13:00)

Cosmos 1633 - Pass Details

Date: 24 January 2019
Orbit: 466 x 485 km, 82.5° (Epoch: 16 February)

Event Time Altitude Azimuth Distance (km) Brightness Sun altitude
Rises 21:38:52 0° 170° (S) 2,553 6.6 -11.2°
Reaches altitude 10° 21:41:34 10° 149° (SSE) 1,667 5.4 -11.6°
Maximum altitude 21:44:01 17° 106° (ESE) 1,287 4.4 -12.0°
Enters shadow 21:45:05 15° 84° (E) 1,365 4.3 -12.1°
